Regional Weather Roundup
Issued by NWS

Home | Current Version | Previous Version | Text Only | Print | Product List | Glossary On
Versions: 1 2 3 4 5 6 7 8 9 10 11 12 13 14 15 16 17 18 19 20 21 22 23 24 25 26 27 28 29 30 31 32 33 34 35 36 37 38 39 40 41 42 43 44 45 46 47 48 49 50
000
ASUS42 KFFC 191610
RWRGA
WEATHER ROUNDUP FOR GEORGIA
NATIONAL WEATHER SERVICE PEACHTREE CITY GA
1200 PM EDT THU APR 19 2018

NOTE: "FAIR" INDICATES FEW OR NO CLOUDS BELOW 12,000 FEET WITH NO
SIGNIFICANT WEATHER AND/OR OBSTRUCTIONS TO VISIBILITY.

* = USE WITH CAUTION. THE STATIONS MARKED WITH AN ASTERISK MAY NOT
REPORT WEATHER SUCH AS PRECIPITATION, FOG, OR THUNDER AND ARE NOT
QUALITY CONTROLLED BY NWS.

THE REMARK "TC" DENOTES TEMPERATURE READING IN DEGREES CELSIUS.

GAZ001>058-191700-
NORTH GEORGIA

CITY           SKY/WX    TMP DP  RH WIND       PRES   REMARKS
ATLANTA        FAIR      65  41  41 NW15G23   30.06R
ATHENS         FAIR      68  38  33 W12G23    30.00R
CHAMBLEE       FAIR      61  39  44 NW14G22   30.06R
PEACHTREE CITY FAIR      67  42  40 W10G22    30.08R
ROME           PTSUNNY   58  39  49 NW12G21   30.12R
WEST ATLANTA   FAIR      64  38  38 W18G28    30.07R
GAINESVILLE    FAIR      62  36  37 W15G23    30.03R
CARTERSVILLE   FAIR      60  40  47 N8G18     30.11R


CITY           SKY/WX    TMP DP  RH WIND       PRES   REMARKS
DALTON*        PTSUNNY   54  37  54 NW14G22   30.14R
LAWRENCEVILLE* FAIR      62  38  40 W13G22    30.05R
MARIETTA       MOSUNNY   62  38  41 NW14G23   30.07R
KENNESAW*      FAIR      58  39  49 NW13G20   30.09R
CANTON*        FAIR      59  32  36 NW17G25   30.09R
BLAIRSVILLE*   FAIR      52  34  50 NW7G22    30.07S
$$

GAZ059>098-102>109-191700-
CENTRAL GEORGIA

CITY           SKY/WX    TMP DP  RH WIND       PRES   REMARKS
AUGUSTA-BUSH   FAIR      77  57  50 W12G23    29.95R
AUGUSTA-DANIEL FAIR      76  55  48 W13G22    29.96R
COLUMBUS       FAIR      75  52  44 NW15      30.05R
MACON          FAIR      76  58  53 W12G21    30.01R


CITY           SKY/WX    TMP DP  RH WIND       PRES   REMARKS
LAGRANGE*      FAIR      70  47  44 NW9G16    30.08R
SYLVANIA*      PTSUNNY   77  64  65 W8G18     29.99S
MILLEDGEVILLE* FAIR      75  52  43 NW14      30.00R
$$

GAZ099>101-110>166-191700-
SOUTH GEORGIA

CITY           SKY/WX    TMP DP  RH WIND       PRES   REMARKS
SAVANNAH       PTSUNNY   79  62  56 W18G25    29.99S
VALDOSTA       FAIR      80  63  55 VRB6      30.07R
ALMA           PTSUNNY   78  62  57 W12       30.03R
ST SIMONS      FAIR      78  64  61 W12       30.02F
ALBANY         PTSUNNY   75  63  66 W10       30.08R
MOODY AFB      FAIR      80  62  54 SW13G23   30.05R
BRUNSWICK      FAIR      77  63  61 SW10G18   30.03S


CITY           SKY/WX    TMP DP  RH WIND       PRES   REMARKS
BAINBRIDGE*      N/A     75  68  78 W10       30.09R
MOULTRIE*      FAIR      75  63  64 W10G22    30.08S
VIDALIA*       PTSUNNY   73  63  68 W12G18    30.02S
WAYCROSS*      FAIR      81  59  47 W17G23    30.03S
DOUGLAS*       PTSUNNY   77  63  61 W13G20    30.05S
$$




USA.gov is the U.S. government's official web portal to all federal, state and local government web resources and services.